Nabq, Egypt

2:10 PM EET on February 23, 2017 (GMT +0200)
Sharm El Sheikh International

Weather History for HESH - January, 2014

Change the Weather History Date:

Tuesday, January 7, 2014

  Actual Average Record
Temperature  
Mean Temperature 66 °F -  
Max Temperature 77 °F - - ()
Min Temperature 55 °F - - ()
Cooling Degree Days 1    
Growing Degree Days 16 (Base 50)    
Moisture  
Dew Point 34 °F    
Average Humidity 33    
Maximum Humidity 51    
Minimum Humidity 22    
Precipitation  
Precipitation 0.00 in - - ()
Sea Level Pressure  
Sea Level Pressure 30.03 in    
Wind  
Wind Speed 5 mph ()    
Max Wind Speed 12 mph    
Max Gust Speed -    
T = Trace of Precipitation, MM = Missing Value Source: Averaged Metar Reports

Daily Weather History Graph

Daily Weather History Graph

Search for Another Location

Airport or City:

Trip Planner

Search our weather history database for the weather conditions in past years. The results will help you decide how hot, cold, wet, or windy it might be!

Date:

Astronomy

Jan. 07, 2014 Rise Set
Actual Time 6:34 AM EET 5:02 PM EET
Civil Twilight 6:09 AM EET 5:28 PM EET
Nautical Twilight 5:40 AM EET 5:57 PM EET
Astronomical Twilight 5:11 AM EET 6:25 PM EET
Moon 10:48 AM EET (1/7) 11:38 PM EET (1/7)
Length of Visible Light 11h 18m
Length of Day
10h 27m
Waxing Crescent, 42% of the Moon is Illuminated
Jan 7
Waxing Crescent
Jan 8
First Quarter
Jan 16
Full
Jan 24
Last Quarter
Jan 30
New

Hourly Weather History & Observations

Time (EET) Temp. Dew Point Humidity Pressure Visibility Wind Dir Wind Speed Gust Speed Precip Events Conditions
12:00 AM 59.0 °F 41.0 °F 51% 30.04 in - North 6.9 mph - N/A   Clear
1:00 AM 60.8 °F 41.0 °F 48% 30.06 in - North 5.8 mph - N/A   Clear
2:00 AM 57.2 °F 37.4 °F 48% 30.04 in - NNW 8.1 mph - N/A   Clear
3:00 AM 60.8 °F 35.6 °F 39% 30.04 in - NNW 6.9 mph - N/A   Clear
5:00 AM 59.0 °F 35.6 °F 42% 30.04 in - NNW 4.6 mph - N/A   Clear
6:00 AM 60.8 °F 33.8 °F 36% 30.06 in - NNW 6.9 mph - N/A   Clear
7:00 AM 59.0 °F 33.8 °F 39% 30.06 in - North 5.8 mph - N/A   Clear
8:00 AM 62.6 °F 32.0 °F 32% 30.06 in - North 3.5 mph - N/A   Clear
9:00 AM 66.2 °F 33.8 °F 30% 30.09 in - North 8.1 mph - N/A   Clear
10:00 AM 71.6 °F 35.6 °F 27% 30.09 in - North 9.2 mph - N/A   Clear
11:00 AM 73.4 °F 39.2 °F 29% 30.06 in - NNE 11.5 mph - N/A   Clear
12:00 PM 73.4 °F 39.2 °F 29% 30.04 in - North 10.4 mph - N/A   Clear
1:00 PM 75.2 °F 39.2 °F 27% 30.01 in - NNE 9.2 mph - N/A   Clear
2:00 PM 77.0 °F 37.4 °F 24% 30.01 in - NE 4.6 mph - N/A   Clear
3:00 PM 77.0 °F 35.6 °F 22% 30.01 in - NNE 3.5 mph - N/A   Clear
4:00 PM 71.6 °F 32.0 °F 23% 30.01 in - Variable 2.3 mph - N/A   Clear
5:00 PM 68.0 °F 28.4 °F 23% 30.01 in - NNE 2.3 mph - N/A   Clear
6:00 PM 60.8 °F 32.0 °F 34% 30.01 in - North 2.3 mph - N/A   Clear
7:00 PM 59.0 °F 32.0 °F 36% 30.01 in - WNW 2.3 mph - N/A   Clear
8:00 PM 57.2 °F 26.6 °F 31% 30.01 in - WSW 2.3 mph - N/A   Clear
9:00 PM 57.2 °F 26.6 °F 31% 30.01 in - North 2.3 mph - N/A   Clear
10:00 PM 55.4 °F 23.0 °F 29% 30.01 in - North 2.3 mph - N/A   Clear
11:00 PM 55.4 °F 21.2 °F 26% 30.01 in - NNW 3.5 mph - N/A   Clear